| time (UTC) | temp C | wind direction | speed KPH | gust KPH | rain 1hr cm | rain 24hr cm | rain mn cm | humidity % | barometer mb |
| 20260503220514 | 19 | 17 | 3.2 | 8.0 | 0.00 | 0.00 | 0.00 | 37 | 1018.1 |
| 20260503220016 | 19 | 2 | 0.0 | 8.0 | 0.00 | 0.00 | 0.00 | 35 | 1018.1 |
| 20260503215515 | 19 | 0 | 0.0 | 9.7 | 0.00 | 0.00 | 0.00 | 35 | 1018.2 |
| 20260503214013 | 20 | 15 | 1.6 | 9.7 | 0.00 | 0.00 | 0.00 | 35 | 1018.2 |
| 20260503213513 | 20 | 0 | 0.0 | 6.4 | 0.00 | 0.00 | 0.00 | 36 | 1018.3 |
| 20260503213015 | 19 | 35 | 3.2 | 6.4 | 0.00 | 0.00 | 0.00 | 39 | 1018.5 |
| 20260503212514 | 20 | 28 | 1.6 | 9.7 | 0.00 | 0.00 | 0.00 | 36 | 1018.4 |
| 20260503212013 | 19 | 16 | 3.2 | 9.7 | 0.00 | 0.00 | 0.00 | 38 | 1018.5 |
| 20260503211514 | 19 | 13 | 0.0 | 8.0 | 0.00 | 0.00 | 0.00 | 38 | 1018.6 |
| 20260503211014 | 19 | 16 | 3.2 | 6.4 | 0.00 | 0.00 | 0.00 | 35 | 1018.6 |
| 20260503210514 | 19 | 13 | 0.0 | 8.0 | 0.00 | 0.00 | 0.00 | 35 | 1018.6 |
| 20260503210014 | 18 | 14 | 3.2 | 8.0 | 0.00 | 0.00 | 0.00 | 39 | 1018.7 |
| 20260503205013 | 18 | 18 | 3.2 | 19.3 | 0.00 | 0.00 | 0.00 | 37 | 1018.7 |
| 20260503204514 | 19 | 22 | 1.6 | 9.7 | 0.00 | 0.00 | 0.00 | 37 | 1018.8 |
| 20260503204014 | 19 | 20 | 1.6 | 8.0 | 0.00 | 0.00 | 0.00 | 38 | 1018.8 |
| 20260503203515 | 19 | 3 | 1.6 | 6.4 | 0.00 | 0.00 | 0.00 | 36 | 1018.8 |
| 20260503203013 | 19 | 356 | 3.2 | 6.4 | 0.00 | 0.00 | 0.00 | 38 | 1018.9 |
| 20260503202514 | 19 | 356 | 1.6 | 6.4 | 0.00 | 0.00 | 0.00 | 35 | 1019.0 |
| 20260503202013 | 19 | 347 | 3.2 | 6.4 | 0.00 | 0.00 | 0.00 | 39 | 1019.1 |
| 20260503201513 | 19 | 23 | 0.0 | 11.3 | 0.00 | 0.00 | 0.00 | 39 | 1019.2 |
| 20260503201015 | 18 | 17 | 1.6 | 11.3 | 0.00 | 0.00 | 0.00 | 37 | 1019.2 |
| 20260503200514 | 18 | 15 | 6.4 | 9.7 | 0.00 | 0.00 | 0.00 | 40 | 1019.4 |
| 20260503200015 | 18 | 17 | 4.8 | 12.9 | 0.00 | 0.00 | 0.00 | 41 | 1019.4 |
| 20260503195514 | 18 | 17 | 6.4 | 12.9 | 0.00 | 0.00 | 0.00 | 39 | 1019.5 |
| 20260503195014 | 18 | 12 | 6.4 | 12.9 | 0.00 | 0.00 | 0.00 | 41 | 1019.6 |
| 20260503194013 | 18 | 8 | 3.2 | 11.3 | 0.00 | 0.00 | 0.00 | 39 | 1019.7 |
| 20260503193514 | 18 | 7 | 3.2 | 12.9 | 0.00 | 0.00 | 0.00 | 42 | 1020.0 |
| 20260503193014 | 17 | 9 | 6.4 | 12.9 | 0.00 | 0.00 | 0.00 | 41 | 1020.0 |
| 20260503192514 | 17 | 15 | 3.2 | 11.3 | 0.00 | 0.00 | 0.00 | 43 | 1020.2 |
| 20260503192015 | 17 | 18 | 4.8 | 9.7 | 0.00 | 0.00 | 0.00 | 39 | 1020.2 |
| 20260503191013 | 17 | 13 | 4.8 | 9.7 | 0.00 | 0.00 | 0.00 | 41 | 1020.2 |
| 20260503190513 | 17 | 358 | 4.8 | 11.3 | 0.00 | 0.00 | 0.00 | 43 | 1020.3 |
| 20260503190016 | 17 | 4 | 3.2 | 12.9 | 0.00 | 0.00 | 0.00 | 41 | 1020.3 |
| 20260503185514 | 17 | 8 | 8.0 | 12.9 | 0.00 | 0.00 | 0.00 | 38 | 1020.3 |
| 20260503185016 | 17 | 350 | 6.4 | 9.7 | 0.00 | 0.00 | 0.00 | 41 | 1020.5 |
| 20260503184513 | 17 | 296 | 0.0 | 9.7 | 0.00 | 0.00 | 0.00 | 42 | 1020.5 |
| 20260503183514 | 16 | 5 | 1.6 | 11.3 | 0.00 | 0.00 | 0.00 | 43 | 1020.7 |
| 20260503182514 | 16 | 5 | 4.8 | 11.3 | 0.00 | 0.00 | 0.00 | 41 | 1020.8 |
| 20260503182015 | 16 | 4 | 0.0 | 8.0 | 0.00 | 0.00 | 0.00 | 41 | 1020.9 |
| 20260503180516 | 16 | 40 | 1.6 | 8.0 | 0.00 | 0.00 | 0.00 | 43 | 1021.1 |
| 20260503175514 | 15 | 294 | 3.2 | 9.7 | 0.00 | 0.00 | 0.00 | 40 | 1021.2 |
| 20260503175013 | 16 | 331 | 4.8 | 9.7 | 0.00 | 0.00 | 0.00 | 42 | 1021.3 |
| 20260503174514 | 16 | 8 | 1.6 | 8.0 | 0.00 | 0.00 | 0.00 | 41 | 1021.3 |
| 20260503173514 | 16 | 9 | 1.6 | 9.7 | 0.00 | 0.00 | 0.00 | 45 | 1021.4 |
| 20260503173017 | 16 | 194 | 1.6 | 11.3 | 0.00 | 0.00 | 0.00 | 43 | 1021.4 |
| 20260503172514 | 16 | 198 | 0.0 | 11.3 | 0.00 | 0.00 | 0.00 | 42 | 1021.5 |
| 20260503172014 | 16 | 190 | 1.6 | 6.4 | 0.00 | 0.00 | 0.00 | 43 | 1021.6 |
| 20260503171513 | 16 | 179 | 1.6 | 6.4 | 0.00 | 0.00 | 0.00 | 41 | 1021.8 |
| 20260503170516 | 15 | 61 | 1.6 | 6.4 | 0.00 | 0.00 | 0.00 | 49 | 1021.9 |
| 20260503151014 | 11 | 24 | 4.8 | 16.1 | 0.00 | 0.00 | 0.00 | 53 | 1022.9 |
| 20260503150515 | 11 | 25 | 4.8 | 12.9 | 0.00 | 0.00 | 0.00 | 55 | 1023.0 |
| 20260503131012 | 6 | 5 | 3.2 | 8.0 | 0.00 | 0.00 | 0.00 | 84 | 1022.7 |
| 20260503130513 | 5 | 0 | 0.0 | 3.2 | 0.00 | 0.00 | 0.00 | 88 | 1022.8 |
| 20260503110518 | 1 | 0 | 0.0 | 0.0 | 0.00 | 0.00 | 0.00 | 92 | 1021.7 |
| 20260503100119 | 1 | 0 | 0.0 | 0.0 | 0.00 | 0.00 | 0.00 | 89 | 1020.7 |
| 20260503081513 | 2 | 0 | 0.0 | 0.0 | 0.00 | 0.00 | 0.00 | 84 | 1019.8 |
| 20260503081014 | 2 | 0 | 0.0 | 0.0 | 0.00 | 0.00 | 0.00 | 85 | 1019.7 |
| 20260503072515 | 3 | 0 | 0.0 | 0.0 | 0.00 | 0.00 | 0.00 | 81 | 1019.4 |
| 20260503072013 | 3 | 0 | 0.0 | 0.0 | 0.00 | 0.00 | 0.00 | 81 | 1019.3 |
| 20260503071513 | 3 | 0 | 0.0 | 0.0 | 0.00 | 0.00 | 0.00 | 80 | 1019.2 |
| 20260503071013 | 4 | 0 | 0.0 | 0.0 | 0.00 | 0.00 | 0.00 | 79 | 1019.1 |
| 20260503070513 | 4 | 0 | 0.0 | 0.0 | 0.00 | 0.00 | 0.00 | 78 | 1019.1 |
| 20260503055014 | 4 | 0 | 0.0 | 0.0 | 0.00 | 0.00 | 0.00 | 77 | 1019.2 |
| 20260503054515 | 5 | 0 | 0.0 | 0.0 | 0.00 | 0.00 | 0.00 | 76 | 1019.2 |
| 20260503054013 | 5 | 0 | 0.0 | 0.0 | 0.00 | 0.00 | 0.00 | 75 | 1019.2 |
| 20260503053513 | 5 | 0 | 0.0 | 0.0 | 0.00 | 0.00 | 0.00 | 75 | 1019.2 |
| 20260503053013 | 5 | 0 | 0.0 | 0.0 | 0.00 | 0.00 | 0.00 | 74 | 1019.2 |
| 20260503052513 | 5 | 0 | 0.0 | 0.0 | 0.00 | 0.00 | 0.00 | 73 | 1019.2 |
| 20260503052013 | 5 | 0 | 0.0 | 0.0 | 0.00 | 0.00 | 0.00 | 72 | 1019.1 |
| 20260503051512 | 5 | 0 | 0.0 | 0.0 | 0.00 | 0.00 | 0.00 | 71 | 1019.1 |
| 20260503051013 | 6 | 0 | 0.0 | 0.0 | 0.00 | 0.00 | 0.00 | 70 | 1019.1 |
| 20260503050515 | 6 | 0 | 0.0 | 0.0 | 0.00 | 0.00 | 0.00 | 69 | 1019.1 |
| 20260503050016 | 6 | 0 | 0.0 | 0.0 | 0.00 | 0.00 | 0.00 | 67 | 1019.0 |
| 20260503045514 | 7 | 0 | 0.0 | 0.0 | 0.00 | 0.00 | 0.00 | 66 | 1019.1 |
| 20260503045013 | 7 | 0 | 0.0 | 0.0 | 0.00 | 0.00 | 0.00 | 65 | 1019.1 |
| 20260503044013 | 7 | 0 | 0.0 | 0.0 | 0.00 | 0.00 | 0.00 | 65 | 1019.0 |
| 20260503043513 | 7 | 0 | 0.0 | 0.0 | 0.00 | 0.00 | 0.00 | 64 | 1019.0 |
| 20260503043013 | 7 | 0 | 0.0 | 4.8 | 0.00 | 0.00 | 0.00 | 64 | 1019.0 |
| 20260503042513 | 7 | 15 | 0.0 | 4.8 | 0.00 | 0.00 | 0.00 | 64 | 1019.0 |
| 20260503042013 | 7 | 0 | 0.0 | 0.0 | 0.00 | 0.00 | 0.00 | 63 | 1018.9 |
| 20260503041013 | 7 | 0 | 0.0 | 0.0 | 0.00 | 0.00 | 0.00 | 63 | 1018.8 |
| 20260503040513 | 7 | 0 | 0.0 | 0.0 | 0.00 | 0.00 | 0.00 | 63 | 1018.7 |
| 20260503040029 | 7 | 0 | 0.0 | 0.0 | 0.00 | 0.00 | 0.00 | 63 | 1018.7 |
| 20260503035513 | 7 | 0 | 0.0 | 0.0 | 0.00 | 0.00 | 0.00 | 63 | 1018.6 |
| 20260503035016 | 7 | 0 | 0.0 | 0.0 | 0.00 | 0.00 | 0.00 | 63 | 1018.6 |
| 20260503034530 | 7 | 0 | 0.0 | 0.0 | 0.00 | 0.00 | 0.00 | 63 | 1018.5 |
| 20260503034014 | 7 | 0 | 0.0 | 0.0 | 0.00 | 0.00 | 0.00 | 63 | 1018.4 |
| 20260503033513 | 7 | 0 | 0.0 | 8.0 | 0.00 | 0.00 | 0.00 | 62 | 1018.4 |
| 20260503033014 | 8 | 9 | 0.0 | 8.0 | 0.00 | 0.00 | 0.00 | 62 | 1018.4 |
| 20260503032515 | 8 | 7 | 1.6 | 8.0 | 0.00 | 0.00 | 0.00 | 61 | 1018.3 |
| 20260503031513 | 8 | 7 | 6.4 | 9.7 | 0.00 | 0.00 | 0.00 | 60 | 1018.3 |
| 20260503031013 | 8 | 6 | 6.4 | 9.7 | 0.00 | 0.00 | 0.00 | 61 | 1018.2 |
| 20260503030514 | 8 | 7 | 4.8 | 8.0 | 0.00 | 0.00 | 0.00 | 61 | 1018.2 |
| 20260503030015 | 8 | 6 | 3.2 | 8.0 | 0.00 | 0.00 | 0.00 | 60 | 1018.2 |
| 20260503025514 | 8 | 6 | 4.8 | 9.7 | 0.00 | 0.00 | 0.00 | 60 | 1018.2 |
| 20260503025013 | 8 | 5 | 3.2 | 9.7 | 0.00 | 0.00 | 0.00 | 60 | 1018.2 |
| 20260503024513 | 8 | 0 | 0.0 | 0.0 | 0.00 | 0.00 | 0.00 | 60 | 1018.1 |
| 20260503024013 | 8 | 0 | 0.0 | 0.0 | 0.00 | 0.00 | 0.00 | 60 | 1018.1 |
| 20260503023514 | 8 | 0 | 0.0 | 0.0 | 0.00 | 0.00 | 0.00 | 59 | 1018.0 |
| 20260503023013 | 8 | 0 | 0.0 | 0.0 | 0.00 | 0.00 | 0.00 | 59 | 1017.9 |
| 20260503022515 | 8 | 0 | 0.0 | 0.0 | 0.00 | 0.00 | 0.00 | 58 | 1018.0 |
| 20260503021512 | 8 | 3 | 0.0 | 6.4 | 0.00 | 0.00 | 0.00 | 57 | 1017.8 |
| 20260503021013 | 8 | 0 | 0.0 | 4.8 | 0.00 | 0.00 | 0.00 | 57 | 1017.7 |
| 20260503020513 | 9 | 0 | 0.0 | 8.0 | 0.00 | 0.00 | 0.00 | 56 | 1017.7 |
| 20260503015513 | 9 | 14 | 4.8 | 9.7 | 0.00 | 0.00 | 0.00 | 55 | 1017.7 |
| 20260503015013 | 9 | 15 | 3.2 | 8.0 | 0.00 | 0.00 | 0.00 | 55 | 1017.7 |
| 20260503014514 | 10 | 12 | 4.8 | 8.0 | 0.00 | 0.00 | 0.00 | 54 | 1017.7 |
| 20260503014015 | 9 | 12 | 4.8 | 11.3 | 0.00 | 0.00 | 0.00 | 55 | 1017.6 |
| 20260503013512 | 10 | 11 | 4.8 | 11.3 | 0.00 | 0.00 | 0.00 | 54 | 1017.5 |
| 20260503013013 | 10 | 7 | 4.8 | 11.3 | 0.00 | 0.00 | 0.00 | 55 | 1017.5 |
| 20260503012513 | 10 | 6 | 4.8 | 11.3 | 0.00 | 0.00 | 0.00 | 54 | 1017.4 |
| 20260503012013 | 10 | 6 | 4.8 | 11.3 | 0.00 | 0.00 | 0.00 | 53 | 1017.4 |
| 20260503011516 | 10 | 3 | 3.2 | 16.1 | 0.00 | 0.00 | 0.00 | 53 | 1017.3 |
| 20260503011012 | 10 | 2 | 4.8 | 16.1 | 0.00 | 0.00 | 0.00 | 53 | 1017.1 |
| 20260503010513 | 10 | 5 | 6.4 | 19.3 | 0.00 | 0.00 | 0.00 | 52 | 1017.0 |
| 20260503010014 | 10 | 9 | 9.7 | 20.9 | 0.00 | 0.00 | 0.00 | 51 | 1016.9 |
| 20260503005513 | 10 | 10 | 9.7 | 20.9 | 0.00 | 0.00 | 0.00 | 51 | 1016.8 |
| 20260503005013 | 10 | 9 | 11.3 | 19.3 | 0.00 | 0.00 | 0.00 | 50 | 1016.6 |
| 20260503004512 | 11 | 11 | 9.7 | 16.1 | 0.00 | 0.00 | 0.00 | 50 | 1016.6 |
| 20260503004012 | 11 | 11 | 8.0 | 16.1 | 0.00 | 0.00 | 0.00 | 49 | 1016.5 |
| 20260503003513 | 11 | 11 | 9.7 | 19.3 | 0.00 | 0.00 | 0.00 | 49 | 1016.5 |
| 20260503003014 | 11 | 14 | 9.7 | 19.3 | 0.00 | 0.00 | 0.00 | 49 | 1016.4 |
| 20260503002515 | 11 | 11 | 6.4 | 16.1 | 0.00 | 0.00 | 0.00 | 48 | 1016.4 |
| 20260503002013 | 11 | 11 | 6.4 | 16.1 | 0.00 | 0.00 | 0.00 | 47 | 1016.3 |
| 20260503001513 | 11 | 12 | 8.0 | 16.1 | 0.00 | 0.00 | 0.00 | 47 | 1016.2 |
| 20260503001013 | 11 | 7 | 8.0 | 17.7 | 0.00 | 0.00 | 0.00 | 47 | 1016.1 |
| 20260503000014 | 12 | 11 | 9.7 | 24.1 | 0.00 | 0.00 | 0.00 | 45 | 1016.0 |
| 20260502235014 | 12 | 12 | 12.9 | 20.9 | 0.00 | 0.00 | 0.00 | 43 | 1015.7 |
| 20260502234516 | 12 | 10 | 12.9 | 20.9 | 0.00 | 0.00 | 0.00 | 43 | 1015.6 |
| 20260502234012 | 12 | 7 | 12.9 | 22.5 | 0.00 | 0.00 | 0.00 | 43 | 1015.5 |
| 20260502233513 | 13 | 8 | 11.3 | 22.5 | 0.00 | 0.00 | 0.00 | 42 | 1015.5 |
| 20260502233014 | 13 | 9 | 11.3 | 24.1 | 0.00 | 0.00 | 0.00 | 42 | 1015.5 |
| 20260502232513 | 13 | 8 | 11.3 | 24.1 | 0.00 | 0.00 | 0.00 | 42 | 1015.3 |
| 20260502232013 | 13 | 10 | 11.3 | 22.5 | 0.00 | 0.00 | 0.00 | 41 | 1015.3 |
| 20260502231513 | 13 | 11 | 12.9 | 25.7 | 0.00 | 0.00 | 0.00 | 40 | 1015.1 |
| 20260502231013 | 13 | 12 | 14.5 | 29.0 | 0.00 | 0.00 | 0.00 | 41 | 1015.2 |
| 20260502230016 | 13 | 9 | 16.1 | 22.5 | 0.00 | 0.00 | 0.00 | 41 | 1015.1 |
| 20260502225512 | 13 | 8 | 12.9 | 20.9 | 0.00 | 0.00 | 0.00 | 42 | 1015.1 |
| 20260502225016 | 13 | 10 | 9.7 | 20.9 | 0.00 | 0.00 | 0.00 | 43 | 1015.2 |
| 20260502224513 | 13 | 10 | 12.9 | 20.9 | 0.00 | 0.00 | 0.00 | 42 | 1015.3 |
| 20260502224014 | 13 | 10 | 6.4 | 24.1 | 0.00 | 0.00 | 0.00 | 44 | 1015.4 |
| 20260502223513 | 13 | 9 | 14.5 | 25.7 | 0.00 | 0.00 | 0.00 | 42 | 1015.2 |
| 20260502223013 | 13 | 6 | 16.1 | 25.7 | 0.00 | 0.00 | 0.00 | 41 | 1015.2 |
| 20260502222516 | 14 | 7 | 14.5 | 30.6 | 0.00 | 0.00 | 0.00 | 41 | 1015.1 |
| 20260502222013 | 14 | 10 | 16.1 | 30.6 | 0.00 | 0.00 | 0.00 | 40 | 1015.1 |
| 20260502221513 | 13 | 9 | 9.7 | 22.5 | 0.00 | 0.00 | 0.00 | 43 | 1015.1 |
| 20260502221014 | 13 | 12 | 11.3 | 27.4 | 0.00 | 0.00 | 0.00 | 41 | 1014.9 |